N233CL YMML-PKWA

Flight info

Callsign N233CL
Flight time N/A
Altitude 41000
Route NONIX4/16 NONIX H66 LAGOB/N0470F430 H252 BN Q67 BIXAD/N0480F410 A598 MANOT DCT 02S163E DCT BIGRA B589 ELNUR DCT RASON
Aircraft C700/M-SBDGHM1RWXY/LB2

Departure

Time 2026-05-08 07:12
Airport Melbourne Airport (YMML)

Arrival

Time N/A
Airport Bucholz Army Air Field (PKWA)
Time Latitude Longitude Altitude Speed Heading
2026-05-08 06:44 -37.68638 144.84948 330 ft 0 kts 83°
2026-05-08 06:58 -37.68640 144.84936 326 ft 3 kts 78°
2026-05-08 06:58 -37.68646 144.84912 327 ft 3 kts 56°
2026-05-08 06:59 -37.68660 144.84894 329 ft 3 kts 25°
2026-05-08 06:59 -37.68677 144.84889 329 ft 2 kts 354°
2026-05-08 06:59 -37.68681 144.84890 328 ft 0 kts 351°
2026-05-08 07:02 -37.68639 144.84889 330 ft 20 kts
2026-05-08 07:02 -37.68462 144.84900 336 ft 26 kts 352°
2026-05-08 07:02 -37.68396 144.84756 339 ft 19 kts 271°
2026-05-08 07:03 -37.68388 144.84567 335 ft 25 kts 285°
2026-05-08 07:03 -37.68188 144.84454 349 ft 39 kts 351°
2026-05-08 07:03 -37.67899 144.84390 355 ft 41 kts 349°
2026-05-08 07:03 -37.67636 144.84349 365 ft 30 kts 348°
2026-05-08 07:04 -37.67592 144.84340 367 ft 2 kts 354°
2026-05-08 07:04 -37.67591 144.84340 367 ft 0 kts 354°
2026-05-08 07:05 -37.67579 144.84339 367 ft 9 kts 354°
2026-05-08 07:05 -37.67447 144.84314 371 ft 25 kts 351°
2026-05-08 07:05 -37.67254 144.84277 375 ft 29 kts 351°
2026-05-08 07:05 -37.67028 144.84232 379 ft 33 kts 351°
2026-05-08 07:06 -37.66863 144.84206 384 ft 25 kts 350°
2026-05-08 07:06 -37.66791 144.84191 386 ft 0 kts 351°
2026-05-08 07:08 -37.66772 144.84188 387 ft 15 kts 355°
2026-05-08 07:08 -37.66698 144.84291 391 ft 25 kts 83°
2026-05-08 07:08 -37.66663 144.84554 394 ft 31 kts 83°
2026-05-08 07:09 -37.66571 144.84792 399 ft 32 kts
2026-05-08 07:09 -37.66374 144.84782 404 ft 7 kts
2026-05-08 07:09 -37.66373 144.84782 405 ft 0 kts
2026-05-08 07:10 -37.66339 144.84784 406 ft 17 kts
2026-05-08 07:10 -37.66225 144.84688 407 ft 7 kts 272°
2026-05-08 07:10 -37.66225 144.84685 407 ft 0 kts 271°
2026-05-08 07:11 -37.66219 144.84537 406 ft 55 kts 272°
2026-05-08 07:11 -37.66169 144.83709 410 ft 131 kts 275°
2026-05-08 07:11 -37.66009 144.82340 645 ft 178 kts 274°
2026-05-08 07:11 -37.65834 144.80559 754 ft 237 kts 270°
2026-05-08 07:12 -37.65835 144.78469 1038 ft 224 kts 266°
2026-05-08 07:12 -37.65803 144.76491 1464 ft 219 kts 268°
2026-05-08 07:12 -37.65851 144.74627 1359 ft 203 kts 259°
2026-05-08 07:12 -37.65991 144.72948 1632 ft 192 kts 264°
2026-05-08 07:13 -37.65634 144.71311 2051 ft 199 kts 287°
2026-05-08 07:13 -37.65291 144.69667 2527 ft 194 kts 270°
2026-05-08 07:13 -37.65069 144.67970 3027 ft 200 kts 286°
2026-05-08 07:13 -37.64377 144.66425 3525 ft 205 kts 300°
2026-05-08 07:14 -37.63298 144.65161 4194 ft 219 kts 322°
2026-05-08 07:14 -37.61828 144.64303 5087 ft 251 kts 338°
2026-05-08 07:14 -37.60053 144.63665 5918 ft 278 kts 340°
2026-05-08 07:14 -37.58130 144.63022 7031 ft 291 kts 349°
2026-05-08 07:15 -37.56104 144.63039 8261 ft 301 kts
2026-05-08 07:15 -37.54058 144.63737 9512 ft 309 kts 23°
2026-05-08 07:15 -37.52199 144.65131 10735 ft 314 kts 41°
2026-05-08 07:15 -37.50692 144.67132 11960 ft 316 kts 56°
2026-05-08 07:16 -37.49363 144.69371 13182 ft 322 kts 56°
2026-05-08 07:16 -37.47984 144.71643 14371 ft 328 kts 56°
2026-05-08 07:16 -37.46468 144.73829 15481 ft 335 kts 48°
2026-05-08 07:16 -37.44829 144.75938 16607 ft 339 kts 49°
2026-05-08 07:17 -37.43196 144.78106 17354 ft 358 kts 49°
2026-05-08 07:17 -37.41442 144.80449 18110 ft 371 kts 49°
2026-05-08 07:17 -37.39650 144.82801 19174 ft 375 kts 48°
2026-05-08 07:17 -37.37837 144.85177 20120 ft 379 kts 49°
2026-05-08 07:18 -37.35997 144.87601 21002 ft 384 kts 49°
2026-05-08 07:18 -37.34146 144.90043 21859 ft 388 kts 49°
2026-05-08 07:18 -37.32271 144.92504 22685 ft 392 kts 49°
2026-05-08 07:18 -37.30373 144.94991 23521 ft 396 kts 49°
2026-05-08 07:19 -37.28461 144.97500 24209 ft 403 kts 49°
2026-05-08 07:19 -37.26470 145.00117 24269 ft 426 kts 49°
2026-05-08 07:19 -37.24359 145.02885 24280 ft 450 kts 49°
2026-05-08 07:19 -37.22141 145.05780 24280 ft 466 kts 49°
2026-05-08 07:20 -37.19887 145.08720 24346 ft 467 kts 49°
2026-05-08 07:20 -37.17695 145.11575 25835 ft 440 kts 49°
2026-05-08 07:20 -37.15635 145.14261 27521 ft 420 kts 49°
2026-05-08 07:20 -37.13624 145.16895 28033 ft 428 kts 49°
2026-05-08 07:21 -37.11550 145.19606 28645 ft 432 kts 49°
2026-05-08 07:21 -37.09448 145.22334 29248 ft 437 kts 49°
2026-05-08 07:21 -37.07291 145.25057 29814 ft 444 kts 45°
2026-05-08 07:21 -37.04891 145.27518 30383 ft 449 kts 42°
2026-05-08 07:22 -37.02464 145.30018 30881 ft 452 kts 43°
2026-05-08 07:22 -37.00048 145.32559 31394 ft 456 kts 43°
2026-05-08 07:22 -36.97596 145.35101 31881 ft 459 kts 43°
2026-05-08 07:22 -36.95113 145.37640 32369 ft 463 kts 43°
2026-05-08 07:23 -36.92628 145.40194 32843 ft 465 kts 43°
2026-05-08 07:23 -36.90146 145.42765 33299 ft 468 kts 43°
2026-05-08 07:23 -36.87634 145.45357 33919 ft 467 kts 43°
2026-05-08 07:23 -36.85129 145.47926 34512 ft 465 kts 43°
2026-05-08 07:24 -36.82629 145.50491 35036 ft 463 kts 43°
2026-05-08 07:24 -36.80144 145.53047 35566 ft 461 kts 43°
2026-05-08 07:24 -36.77672 145.55586 36045 ft 460 kts 42°
2026-05-08 07:24 -36.75202 145.58116 36519 ft 458 kts 42°
2026-05-08 07:25 -36.72745 145.60631 36968 ft 457 kts 41°
2026-05-08 07:25 -36.70291 145.63143 37399 ft 455 kts 41°
2026-05-08 07:25 -36.65405 145.68137 38206 ft 452 kts 41°
2026-05-08 07:26 -36.63000 145.70591 38576 ft 451 kts 41°
2026-05-08 07:26 -36.60572 145.73068 38918 ft 450 kts 40°
2026-05-08 07:26 -36.58161 145.75525 39168 ft 450 kts 40°
2026-05-08 07:26 -36.55727 145.78004 39384 ft 450 kts 40°
2026-05-08 07:27 -36.53293 145.80480 39595 ft 451 kts 40°
2026-05-08 07:27 -36.50868 145.82944 39796 ft 451 kts 40°
2026-05-08 07:27 -36.48435 145.85415 39994 ft 452 kts 40°
2026-05-08 07:27 -36.45997 145.87888 40184 ft 452 kts 39°
2026-05-08 07:28 -36.43550 145.90370 40198 ft 457 kts 39°
2026-05-08 07:28 -36.38559 145.95425 40206 ft 468 kts 39°
2026-05-08 07:29 -36.33463 146.00575 40222 ft 477 kts 39°
2026-05-08 07:29 -36.30895 146.03167 40672 ft 467 kts 39°
2026-05-08 07:29 -36.28402 146.05682 41231 ft 460 kts 39°
2026-05-08 07:30 -36.23413 146.10709 41228 ft 469 kts 39°
2026-05-08 07:30 -36.18302 146.15848 41227 ft 477 kts 39°
2026-05-08 07:31 -36.13101 146.21069 41240 ft 485 kts 39°
2026-05-08 07:31 -36.07826 146.26355 41252 ft 492 kts 39°
2026-05-08 07:32 -36.02492 146.31691 41249 ft 499 kts 38°
2026-05-08 07:32 -35.97064 146.37111 41245 ft 503 kts 38°
2026-05-08 07:33 -35.91607 146.42550 41241 ft 504 kts 38°
2026-05-08 07:33 -35.86152 146.47977 41244 ft 504 kts 38°
2026-05-08 07:34 -35.80688 146.53403 41243 ft 504 kts 38°
2026-05-08 07:34 -35.75258 146.58786 41241 ft 504 kts 38°
2026-05-08 07:35 -35.69792 146.64193 41242 ft 503 kts 38°
2026-05-08 07:35 -35.64322 146.69597 41247 ft 504 kts 38°
2026-05-08 07:36 -35.58853 146.74988 41241 ft 504 kts 38°
2026-05-08 07:36 -35.53378 146.80377 41241 ft 504 kts 38°
2026-05-08 07:37 -35.47899 146.85758 41241 ft 504 kts 37°
2026-05-08 07:37 -35.42419 146.91132 41243 ft 505 kts 37°
2026-05-08 07:38 -35.36964 146.96469 41237 ft 505 kts 37°
2026-05-08 07:38 -35.31467 147.01839 41239 ft 505 kts 37°
2026-05-08 07:39 -35.26894 147.06299 41237 ft 505 kts 37°
2026-05-08 07:39 -35.21392 147.11656 41240 ft 506 kts 37°
2026-05-08 07:40 -35.15887 147.17007 41239 ft 506 kts 37°
2026-05-08 07:40 -35.10362 147.22367 41236 ft 507 kts 37°
2026-05-08 07:41 -35.04837 147.27718 41237 ft 507 kts 37°
2026-05-08 07:41 -34.99295 147.33075 41239 ft 508 kts 37°
2026-05-08 07:42 -34.93781 147.38397 41239 ft 509 kts 36°
2026-05-08 07:42 -34.88218 147.43755 41241 ft 509 kts 36°
2026-05-08 07:43 -34.82648 147.49113 41241 ft 509 kts 36°
2026-05-08 07:43 -34.77078 147.54459 41240 ft 510 kts 36°
2026-05-08 07:44 -34.71499 147.59805 41235 ft 510 kts 36°
2026-05-08 07:44 -34.65947 147.65115 41237 ft 511 kts 36°
2026-05-08 07:45 -34.60356 147.70454 41237 ft 511 kts 36°
2026-05-08 07:45 -34.54762 147.75786 41234 ft 511 kts 36°
2026-05-08 07:46 -34.49156 147.81120 41231 ft 511 kts 36°
2026-05-08 07:46 -34.43589 147.86407 41230 ft 511 kts 36°
2026-05-08 07:47 -34.37980 147.91726 41232 ft 512 kts 36°
2026-05-08 07:47 -34.32361 147.97044 41233 ft 512 kts 36°
2026-05-08 07:48 -34.26741 148.02355 41232 ft 512 kts 36°
2026-05-08 07:48 -34.21122 148.07654 41238 ft 513 kts 35°
2026-05-08 07:49 -34.15492 148.12955 41236 ft 513 kts 35°
2026-05-08 07:49 -34.09889 148.18222 41235 ft 513 kts 35°
2026-05-08 07:50 -34.04260 148.23504 41231 ft 513 kts 35°
2026-05-08 07:50 -33.98631 148.28776 41231 ft 512 kts 35°
2026-05-08 07:51 -33.93005 148.34038 41232 ft 512 kts 35°
2026-05-08 07:51 -33.87362 148.39305 41232 ft 512 kts 35°
2026-05-08 07:52 -33.81734 148.44550 41234 ft 511 kts 34°
2026-05-08 07:52 -33.76106 148.49785 41234 ft 511 kts 34°
2026-05-08 07:53 -33.70475 148.55014 41234 ft 512 kts 34°
2026-05-08 07:53 -33.64839 148.60240 41237 ft 512 kts 34°
2026-05-08 07:54 -33.59229 148.65432 41235 ft 513 kts 34°
2026-05-08 07:54 -33.53570 148.70661 41233 ft 513 kts 34°
2026-05-08 07:55 -33.47907 148.75884 41238 ft 514 kts 34°
2026-05-08 07:55 -33.42237 148.81105 41239 ft 515 kts 34°
2026-05-08 07:56 -33.36553 148.86331 41239 ft 515 kts 34°
2026-05-08 07:56 -33.30865 148.91551 41236 ft 515 kts 34°
2026-05-08 07:57 -33.25203 148.96738 41236 ft 515 kts 34°
2026-05-08 07:57 -33.19510 149.01946 41238 ft 515 kts 34°
2026-05-08 07:58 -33.13805 149.07155 41236 ft 515 kts 33°
2026-05-08 07:58 -33.08112 149.12345 41236 ft 515 kts 33°
2026-05-08 07:59 -33.02457 149.17491 41235 ft 514 kts 33°
2026-05-08 07:59 -32.96763 149.22664 41232 ft 515 kts 33°
2026-05-08 08:00 -32.91063 149.27835 41235 ft 514 kts 33°
2026-05-08 08:00 -32.85363 149.32995 41229 ft 515 kts 33°
2026-05-08 08:01 -32.79662 149.38151 41225 ft 515 kts 33°
2026-05-08 08:01 -32.73955 149.43301 41226 ft 514 kts 32°
2026-05-08 08:02 -32.68259 149.48433 41224 ft 514 kts 32°
2026-05-08 08:02 -32.62556 149.53564 41231 ft 514 kts 32°
2026-05-08 08:03 -32.56852 149.58688 41224 ft 514 kts 32°
2026-05-08 08:03 -32.51078 149.63584 41227 ft 513 kts 30°
2026-05-08 08:04 -32.45255 149.68512 41220 ft 514 kts 30°
2026-05-08 08:04 -32.39422 149.73406 41222 ft 513 kts 30°
2026-05-08 08:05 -32.33608 149.78295 41224 ft 513 kts 30°
2026-05-08 08:05 -32.27777 149.83178 41227 ft 513 kts 30°
2026-05-08 08:06 -32.21993 149.88022 41225 ft 512 kts 30°
2026-05-08 08:06 -32.16171 149.92887 41222 ft 512 kts 29°
2026-05-08 08:07 -32.10355 149.97739 41215 ft 512 kts 29°
2026-05-08 08:07 -32.04526 150.02595 41217 ft 512 kts 29°
2026-05-08 08:08 -31.98697 150.07443 41216 ft 513 kts 29°
2026-05-08 08:08 -31.92867 150.12284 41216 ft 512 kts 29°
2026-05-08 08:09 -31.87029 150.17124 41217 ft 514 kts 28°
2026-05-08 08:09 -31.81176 150.21967 41215 ft 513 kts 28°
2026-05-08 08:10 -31.75331 150.26800 41213 ft 513 kts 28°
2026-05-08 08:10 -31.69518 150.31592 41213 ft 514 kts 28°
2026-05-08 08:11 -31.63657 150.36420 41209 ft 514 kts 28°
2026-05-08 08:11 -31.57793 150.41242 41209 ft 514 kts 28°
2026-05-08 08:12 -31.51955 150.46037 41214 ft 513 kts 28°
2026-05-08 08:12 -31.46102 150.50835 41209 ft 513 kts 27°
2026-05-08 08:13 -31.40248 150.55628 41210 ft 513 kts 27°
2026-05-08 08:13 -31.34399 150.60408 41208 ft 513 kts 27°
2026-05-08 08:14 -31.28552 150.65181 41197 ft 513 kts 27°
2026-05-08 08:14 -31.22715 150.69937 41185 ft 513 kts 27°
2026-05-08 08:15 -31.16856 150.74703 41175 ft 513 kts 27°
2026-05-08 08:15 -31.10997 150.79464 41174 ft 512 kts 27°
2026-05-08 08:16 -31.05250 150.84428 41182 ft 520 kts 34°
2026-05-08 08:16 -30.99862 150.90071 41181 ft 520 kts 33°
2026-05-08 08:17 -30.94479 150.95652 41191 ft 521 kts 34°
2026-05-08 08:17 -30.89078 151.01285 41200 ft 520 kts 33°
2026-05-08 08:18 -30.83662 151.06888 41212 ft 520 kts 33°
2026-05-08 08:18 -30.78262 151.12494 41224 ft 520 kts 33°
2026-05-08 08:19 -30.72849 151.18087 41227 ft 520 kts 33°
2026-05-08 08:19 -30.67439 151.23678 41226 ft 520 kts 33°
2026-05-08 08:20 -30.62046 151.29236 41232 ft 520 kts 33°
2026-05-08 08:20 -30.56633 151.34812 41228 ft 519 kts 33°
2026-05-08 08:21 -30.51215 151.40379 41227 ft 519 kts 32°
2026-05-08 08:21 -30.45802 151.45937 41230 ft 520 kts 32°
2026-05-08 08:22 -30.40388 151.51484 41232 ft 520 kts 32°
2026-05-08 08:22 -30.35006 151.56992 41234 ft 519 kts 32°
2026-05-08 08:23 -30.29588 151.62527 41230 ft 519 kts 32°
2026-05-08 08:23 -30.24165 151.68057 41224 ft 519 kts 32°
2026-05-08 08:24 -30.18744 151.73580 41221 ft 519 kts 32°
2026-05-08 08:24 -30.14203 151.78198 41218 ft 519 kts 32°
2026-05-08 08:25 -30.08814 151.83670 41215 ft 519 kts 32°
2026-05-08 08:25 -30.03394 151.89167 41205 ft 519 kts 32°
2026-05-08 08:26 -29.97963 151.94666 41197 ft 518 kts 31°
2026-05-08 08:26 -29.92550 152.00138 41190 ft 518 kts 31°
2026-05-08 08:27 -29.87126 152.05615 41179 ft 517 kts 31°